Погода в Тарасовском

Россия / Ростовская область     48°43′45″N   40°21′55″E
темп.,
°C
ветер,
м/с
пор.,
м/с
влажн.,
%
обл.,
%
осадки,
мм/ч
давл.,
гПа
погр.,
м
7 мая, пт
пт700:00+12ююв367498 0.0 1012103
03:00+12ю367985 0.0 1011124
06:00+11ююз3588100 0.1 1012160
09:00+15з3467100 0.1 1013659
12:00+17сз666499 0.9 10141328
15:00+16сз566091 1.3 10151328
18:00+16с445328 0.0 10161138
21:00+11всв45705 0.0 101878
8 мая, сб
сб800:00+10вюв477296 0.0 1017109
03:00+9юв4777100 0.0 1016106
06:00+10юв498029 0.0 1016216
09:00+16ю6867100 0.0 1015708
12:00+19ю6855100 0.0 10131311
15:00+21ююз7950100 0.0 10121870
18:00+19ююз6959100 0.0 1011909
21:00+15юз477193 0.0 1011115
9 мая, вс
вс900:00+11сз489785 0.0 1011239
03:00+9ссз81279100 0.0 1013688
06:00+9ссз71284100 0.2 1012707
09:00+8ссз71291100 3.6 1013813
12:00+6ссз101491100 9.3 1014809
15:00+6с101591100 17.6 1015990
18:00+7с101791100 8.8 10161175
21:00+7ссз101689100 13.5 10181173
10 мая, пн
пн1000:00+6с101790100 6.7 10181029
03:00+6ссз91592100 11.2 10181013
06:00+6с81592100 3.6 1018982
09:00+6с91694100 5.0 1017806
12:00+8ссв91694100 1.4 1016653
15:00+9ссв101893100 2.1 1016683
18:00+11ссв122093100 1.4 1015918
21:00+9ссв112085100 4.1 1020723
11 мая, вт
вт1100:00+9ююв1499100 8.0 1017193
03:00+8ююв2498100 15.2 1017267
06:00+8юв3597100 3.3 1019312
09:00+9юв568796 3.8 1021674
12:00+11юв687371 0.3 10221182
15:00+12юв4571100 0.4 10231182
18:00+10ю3376100 0.1 1023564
21:00+8зюз1182100 0.1 102310